Find STARLINK-38045

NORAD ID: 100010 Int'l Des: 2026-160K Owner: SPXS Country: US Constellation: starlink operational

現在のビュー

3D地球を読み込み中...

About STARLINK-38045

STARLINK-38045 (NORAD 100010) is a starlink constellation satellite (v2 mini) launched Jul 14, 2026 by SPXS of US. with a mass of 575.00 kg.

次回通過

Passes for default location (London). Set your location on the main map for personalized predictions.

高度履歴

Loading altitude history...

軌道要素

1 A0010U 26160K 26220.69904399 .00093434 00000-0 67950-3 0 9990
2 A0010 69.9999 316.1171 0003059 275.6669 84.4179 15.72918239 5254
Epoch: Aug 8, 2026 • Age: 39 hours

現在のステータス

高度 370.6 km
遠地点 / 近地点 N/A
速度 7.69 km/s
衛星直下点 -60.95°S, 170.51°W
打ち上げ日 Jul 14, 2026
運用期間 27 days
タイプ internet

技術仕様

分類 Payload
質量 575.00 kg
乾燥質量 530.00 kg
総質量 575.00 kg
長さ 0.30 m
直径 4.10 m
スパン 29.00 m
形状 Box + pan
製造者 SPXS
バスタイプ Starlink V2MO
フェーズステータス In Orbit
所有者/国 SPXS/US

Most Searched